Weather Roundup
Issued by NWS

Home | Current Version | Previous Version | Text Only | Print | Product List | Glossary On
Versions: 1 2 3 4 5 6 7 8 9 10 11 12 13 14 15 16 17 18 19 20 21 22 23 24 25 26 27 28 29 30 31 32 33 34 35 36 37 38 39 40 41 42 43 44 45 46 47 48 49 50
000
NZUS93 KARX 050010
HRRWXR

CURRENT HOURLY OBSERVATIONS ACROSS
MUCH OF THE UPPER MISSISSIPPI VALLEY
NATIONAL WEATHER SERVICE LA CROSSE WI
700 PM CDT SAT JUL 04 2015


...SOUTHEAST MINNESOTA...


CITY           SKY/WX    TMP DP  RH WIND       PRES   REMARKS
ROCHESTER      SUNNY     78  62  57 S9        29.96F
ROCHESTER/MAYO FAIR      79  61  54 S9        29.95S
WINONA         SUNNY     79  63  57 S3        29.93S
AUSTIN         SUNNY     79  61  53 S7        29.95F
ALBERT LEA     SUNNY     79  57  47 S8        29.94F
DODGE CENTER   SUNNY     77  63  61 S7        29.95F
PRESTON        SUNNY     76  62  61 SW6       29.98S
OWATONNA       SUNNY     79  61  53 S8        29.93F
FARIBAULT      SUNNY     79  64  61 S6        29.93S
$$

...ELSEWHERE IN MINNESOTA...


CITY           SKY/WX    TMP DP  RH WIND       PRES   REMARKS
MINNEAPOLIS    MOSUNNY   83  64  52 S8        29.89F HAZE
INTNL FALLS    SUNNY     78  58  49 VRB5      29.80F
DULUTH         SUNNY     70  58  65 SE9       29.91F
RED WING       MOSUNNY   82  64  54 S6        29.89F HAZE
REDWOOD FALLS  SUNNY     82  64  54 S13       29.87F HAZE
MANKATO        SUNNY     79  63  57 S7        29.91F
WORTHINGTON    SUNNY     79  61  53 S13G18    29.91F
FAIRMONT       MOSUNNY   79  59  50 S12       29.92S
$$

...SOUTHWEST WISCONSIN...


CITY           SKY/WX    TMP DP  RH WIND       PRES   REMARKS
LA CROSSE      SUNNY     81  64  56 S9        29.93F
PRAIRIE DU CHI SUNNY     78  60  53 S3        29.96S
BOSCOBEL       SUNNY     80  63  55 W5        29.96S
LONE ROCK      SUNNY     79  61  53 SW5       29.97S
PLATTEVILLE    SUNNY     77  61  56 SW3       29.98F
FORT MC COY    SUNNY     80  61  53 SW5       29.95F
CAMP DOUGLAS   SUNNY     79  66  63 SW7       29.95F
VIROQUA        FAIR      77  63  61 SW6       29.98S
WIS DELLS      SUNNY     77  61  58 SW6       29.97S
$$

...ELSEWHERE IN WISCONSIN...


CITY           SKY/WX    TMP DP  RH WIND       PRES   REMARKS
MILWAUKEE      PTSUNNY   76  59  55 S9        29.98S
MADISON        MOSUNNY   79  61  53 CALM      29.97S
GREEN BAY      MOSUNNY   76  64  66 SE9       29.96S
EAU CLAIRE     SUNNY     80  64  58 SW7       29.92S
BLACK RVR FLS  FAIR      81  62  53 SW6       29.94S
MEDFORD        MOSUNNY   78  63  60 SW6       29.95F HAZE
WAUSAU         MOSUNNY   80  60  50 SW6       29.93F HAZE
WIS RAPIDS     PTSUNNY   80  62  54 SW6       29.96S
MARSHFIELD     CLOUDY    79  65  62 S6        29.95F HAZE
RICE LAKE      SUNNY     80  63  56 S7        29.93F HAZE
$$

...NORTHEAST IOWA...


CITY           SKY/WX    TMP DP  RH WIND       PRES   REMARKS
DECORAH          N/A    N/A N/A N/A MISG        N/A
MASON CITY     SUNNY     78  60  53 S6        29.96F
CHARLES CITY   SUNNY     77  63  61 S7        29.97F
OELWEIN        SUNNY     77  63  61 S5        29.98F
$$

...ELSEWHERE IN IOWA...


CITY           SKY/WX    TMP DP  RH WIND       PRES   REMARKS
DES MOINES     CLOUDY    80  59  48 S8        29.95S
IOWA CITY      SUNNY     77  62  59 S5        29.98S
FORT DODGE     MOSUNNY   79  59  50 S6        29.95F
$$

...NORTHERN ILLINOIS...


CITY           SKY/WX    TMP DP  RH WIND       PRES   REMARKS
CHICAGO-OHARE  MOSUNNY   78  56  46 SW5       29.97F
CHICAGO-MIDWAY SUNNY     79  59  50 E7        29.97F
MOLINE         SUNNY     78  61  55 CALM      29.97S
ROCKFORD       MOSUNNY   78  59  51 W5        30.00S
PEORIA         SUNNY     80  60  50 NE5       29.98F
$$

NOTE: "FAIR" INDICATES FEW OR NO CLOUDS BELOW 12,000 FEET WITH NO
SIGNIFICANT WEATHER AND/OR OBSTRUCTIONS TO VISIBILITY. WIND
SPEEDS ARE IN MILES-PER-HOUR.



USA.gov is the U.S. government's official web portal to all federal, state and local government web resources and services.